Flag for Canada Weather past 2 weeks in Hay River, Northwest Territories, Canada

Now
34 °F

Partly sunny.


Feels Like: 26 °F
Forecast: 32 / 39 °F
Wind: 10 mph from Southwest

Location: Hay River

Current Time: Oct 23, 2014 at 10:45:56 AM

Latest Report: Oct 23, 2014 at 10:00 AM


Visibility: 15 mi

Pressure: 29.60 "Hg

Humidity: 87%

Dew point: 30 °F

Location of Hay RiverLocation

Historic Weather in Hay River — Graph

°F

Hay River temperature yesterday

Maximum temperature yesterday: 37 °F (at 5:00 PM)
Minimum temperature yesterday: 32 °F (at 12:00 AM)
Average temperature yesterday: 35 °F

Past Weeks' High & Low Weather Summary

 TemperatureHumidityPressure
High54 °F (Oct 10, 5:00 PM)100% (Oct 11, 7:00 AM)30.26 "Hg (Oct 11, 7:00 AM)
Low25 °F (Oct 16, 6:00 AM)61% (Oct 9, 4:00 PM)29.23 "Hg (Oct 11, 5:00 AM)
Average37 °F88%29.73 "Hg
* Reported Oct 8 9:00 AM — Oct 23 9:00 AM, Hay River, Weather by CustomWeather, © 2014

Note: Actual official high and low records may vary slightly from our data, if they occured in-between our weather recording intervals... More about our weather records

Advertising

Hay River weather history for previous 24 hours

 ConditionsComfort  
Time TempWeatherWind HumidityBarometerVisibility
9:00 AM
Oct 23
34 °FPartly cloudy.9 mph93%29.59 "Hg15 mi
8:00 AM36 °FPartly cloudy.8 mph87%29.57 "Hg15 mi
7:00 AM36 °FMostly cloudy.9 mph93%29.56 "Hg15 mi
6:00 AM36 °FLow clouds.9 mph93%29.54 "Hg15 mi
5:00 AM36 °FPassing clouds.12 mph100%29.53 "Hg15 mi
4:00 AM37 °FPassing clouds.9 mph93%29.52 "Hg15 mi
3:00 AM39 °FPassing clouds.9 mph93%29.49 "Hg15 mi
2:00 AM39 °FLight rain. Low clouds.6 mph100%29.48 "Hg10 mi
1:00 AM41 °FLight rain. Low clouds.9 mph93%29.48 "Hg10 mi
12:00 AM39 °FLight rain. Low clouds.8 mph93%29.49 "Hg10 mi
11:00 PM
Oct 22
37 °FLight rain. Passing clouds.8 mph100%29.52 "Hg10 mi
10:00 PM37 °FLight rain. Fog.12 mph100%29.54 "Hg6 mi
9:00 PM37 °FLight rain. Fog.12 mph100%29.56 "Hg6 mi
8:00 PM37 °FLight rain. Fog.16 mph100%29.59 "Hg6 mi
7:00 PM37 °FLight rain. Fog.15 mph100%29.61 "Hg6 mi
6:00 PM37 °FMostly cloudy.15 mph93%29.62 "Hg15 mi
5:00 PM37 °FFog.12 mph93%29.66 "Hg15 mi
4:00 PM36 °FMostly cloudy.13 mph100%29.67 "Hg15 mi
3:00 PM36 °FFog.10 mph100%29.68 "Hg15 mi
2:00 PM36 °FFog.12 mph93%29.70 "Hg8 mi
1:48 PM36 °FFog.10 mph93%29.71 "Hg1 mi
1:00 PM36 °FMostly cloudy.15 mph93%29.71 "Hg15 mi
12:00 PM36 °FMostly cloudy.10 mph93%29.72 "Hg15 mi
11:00 AM36 °FMostly cloudy.9 mph93%29.73 "Hg15 mi
10:00 AM36 °FDrizzle. Fog.3 mph93%29.73 "Hg10 mi
Weather by CustomWeather, © 2014

See weather overviewHow to use our weather pages